| time (UTC) | temp F | wind direction | speed MPH | gust MPH | rain 1hr in | rain 24hr in | rain mn in | humidity % | barometer mb |
| 20260507221505 | 40 | 129 | 2.0 | 3.0 | 0.00 | 2.54 | 0.00 | 63 | 1015.5 |
| 20260507221006 | 40 | 178 | 1.0 | 2.0 | 0.00 | 2.66 | 0.00 | 62 | 1015.5 |
| 20260507220504 | 40 | 177 | 1.0 | 2.0 | 0.00 | 2.78 | 0.00 | 62 | 1015.4 |
| 20260507220005 | 41 | 178 | 1.0 | 2.0 | 0.00 | 2.88 | 0.00 | 62 | 1015.4 |
| 20260507215506 | 41 | 180 | 1.0 | 2.0 | 0.00 | 3.00 | 0.00 | 62 | 1015.4 |
| 20260507215005 | 41 | 180 | 1.0 | 2.0 | 0.00 | 3.12 | 0.00 | 61 | 1015.3 |
| 20260507214504 | 41 | 178 | 1.0 | 2.0 | 0.00 | 3.24 | 0.00 | 60 | 1015.3 |
| 20260507214004 | 42 | 179 | 1.0 | 3.0 | 0.00 | 3.36 | 0.00 | 60 | 1015.2 |
| 20260507213505 | 42 | 179 | 1.0 | 3.0 | 0.00 | 3.48 | 0.00 | 58 | 1015.1 |
| 20260507213005 | 42 | 222 | 0.0 | 2.0 | 0.00 | 3.58 | 0.00 | 57 | 1015.1 |
| 20260507212505 | 42 | 222 | 0.0 | 2.0 | 0.00 | 3.70 | 0.00 | 57 | 1015.1 |
| 20260507210504 | 43 | 222 | 0.0 | 2.0 | 0.00 | 4.18 | 0.00 | 55 | 1014.8 |
| 20260507210005 | 44 | 221 | 1.0 | 2.0 | 0.00 | 4.30 | 0.00 | 55 | 1014.8 |
| 20260507205505 | 44 | 225 | 0.0 | 2.0 | 0.00 | 4.40 | 0.00 | 54 | 1014.8 |
| 20260507205005 | 44 | 222 | 0.0 | 1.0 | 0.00 | 4.52 | 0.00 | 53 | 1014.8 |
| 20260507204506 | 45 | 224 | 0.0 | 1.0 | 0.00 | 4.64 | 0.00 | 52 | 1014.8 |
| 20260507204005 | 45 | 222 | 0.0 | 1.0 | 0.00 | 4.76 | 0.00 | 50 | 1014.8 |
| 20260507203505 | 45 | 223 | 0.0 | 1.0 | 0.00 | 4.88 | 0.00 | 50 | 1014.9 |
| 20260507202506 | 46 | 224 | 0.0 | 0.0 | 0.00 | 5.12 | 0.00 | 49 | 1014.9 |
| 20260507202005 | 46 | 222 | 0.0 | 0.0 | 0.00 | 5.22 | 0.00 | 49 | 1014.8 |
| 20260507201504 | 47 | 223 | 0.0 | 0.0 | 0.00 | 5.34 | 0.00 | 47 | 1014.8 |
| 20260507201005 | 47 | 225 | 0.0 | 0.0 | 0.00 | 5.46 | 0.00 | 47 | 1014.8 |
| 20260507200504 | 48 | 223 | 0.0 | 0.0 | 0.00 | 5.58 | 0.00 | 46 | 1014.7 |
| 20260507200005 | 48 | 224 | 0.0 | 0.0 | 0.00 | 5.70 | 0.00 | 45 | 1014.4 |
| 20260507194504 | 49 | 222 | 0.0 | 0.0 | 0.00 | 6.04 | 0.00 | 43 | 1014.5 |
| 20260507194005 | 50 | 223 | 0.0 | 0.0 | 0.00 | 6.16 | 0.00 | 42 | 1014.3 |
| 20260507193505 | 50 | 224 | 0.0 | 0.0 | 0.00 | 6.28 | 0.00 | 42 | 1014.2 |
| 20260507193005 | 50 | 223 | 0.0 | 0.0 | 0.00 | 6.40 | 0.00 | 42 | 1014.2 |
| 20260507192505 | 51 | 225 | 0.0 | 2.0 | 0.00 | 6.52 | 0.00 | 40 | 1014.0 |
| 20260507192004 | 51 | 223 | 1.0 | 2.0 | 0.00 | 6.64 | 0.00 | 41 | 1013.9 |
| 20260507191505 | 51 | 222 | 0.0 | 2.0 | 0.00 | 6.76 | 0.00 | 39 | 1013.9 |
| 20260507191006 | 52 | 222 | 0.0 | 2.0 | 0.00 | 6.86 | 0.00 | 38 | 1013.8 |
| 20260507190505 | 52 | 214 | 0.0 | 3.0 | 0.00 | 6.98 | 0.00 | 38 | 1013.7 |
| 20260507190005 | 52 | 219 | 1.0 | 3.0 | 0.00 | 7.10 | 0.00 | 38 | 1013.7 |
| 20260507185504 | 53 | 216 | 1.0 | 3.0 | 0.00 | 7.22 | 0.00 | 36 | 1013.6 |
| 20260507185005 | 53 | 205 | 0.0 | 3.0 | 0.00 | 7.34 | 0.00 | 34 | 1013.6 |
| 20260507184504 | 54 | 204 | 1.0 | 3.0 | 0.00 | 7.46 | 0.00 | 34 | 1013.5 |
| 20260507184006 | 54 | 194 | 0.0 | 0.0 | 0.00 | 7.56 | 0.00 | 33 | 1013.4 |
| 20260507183504 | 55 | 194 | 0.0 | 0.0 | 0.00 | 7.68 | 0.00 | 31 | 1013.4 |
| 20260507183006 | 55 | 192 | 0.0 | 0.0 | 0.00 | 7.82 | 0.00 | 30 | 1013.5 |
| 20260507182506 | 55 | 192 | 0.0 | 2.0 | 0.00 | 7.92 | 0.00 | 28 | 1013.4 |
| 20260507182005 | 55 | 193 | 0.0 | 2.0 | 0.00 | 8.04 | 0.00 | 27 | 1013.4 |
| 20260507181005 | 56 | 198 | 0.0 | 3.0 | 0.00 | 8.28 | 0.00 | 27 | 1013.4 |
| 20260507180504 | 56 | 203 | 2.0 | 3.0 | 0.00 | 8.38 | 0.00 | 26 | 1013.4 |
| 20260507180005 | 56 | 205 | 0.0 | 3.0 | 0.00 | 8.50 | 0.00 | 27 | 1013.3 |
| 20260507175504 | 56 | 265 | 1.0 | 3.0 | 0.00 | 8.62 | 0.00 | 26 | 1013.2 |
| 20260507175006 | 56 | 289 | 0.0 | 2.0 | 0.00 | 8.74 | 0.00 | 26 | 1013.2 |
| 20260507174505 | 57 | 283 | 0.0 | 2.0 | 0.00 | 8.86 | 0.00 | 27 | 1013.2 |
| 20260507174005 | 57 | 289 | 0.0 | 3.0 | 0.00 | 8.98 | 0.00 | 27 | 1013.2 |
| 20260507173507 | 57 | 289 | 0.0 | 3.0 | 0.00 | 9.10 | 0.00 | 25 | 1013.2 |